Weather History for Walla Walla, WA

Change the Weather History Date:

Friday, July 27, 2012

  Actual Average Record
Temperature  
Mean Temperature 80 °F -  
Max Temperature 91 °F 94 °F 106 °F (1968)
Min Temperature 69 °F 63 °F 53 °F (1959)
Cooling Degree Days 15    
Growing Degree Days 30 (Base 50)    
Moisture  
Dew Point 42 °F    
Average Humidity 28    
Maximum Humidity 42    
Minimum Humidity 10    
Precipitation  
Precipitation 0.00 in - - ()
Sea Level Pressure  
Sea Level Pressure 29.87 in    
Wind  
Wind Speed 9 mph (SSW)    
Max Wind Speed 14 mph    
Max Gust Speed 22 mph    
Visibility 10 miles    
Events      
Averages and records for this station are not official NWS values.
T = Trace of Precipitation, MM = Missing Value Source: NWS Daily Summary

Daily Weather History Graph

Daily Weather History Graph

Search for Another Location

Airport:

Trip Planner

Search our weather history database for the weather conditions in past years. The results will help you decide how hot, cold, wet, or windy it might be!

Date:

Astronomy

Jul. 27, 2012 Rise Set
Actual Time 5:30 AM PDT 8:28 PM PDT
Civil Twilight 4:54 AM PDT 9:03 PM PDT
Nautical Twilight 4:09 AM PDT 9:48 PM PDT
Astronomical Twilight 3:15 AM PDT 10:42 PM PDT
Moon 3:32 PM PDT 12:07 AM PDT
Length of Visible Light 16h 08m
Length of Day
14h 58m
Waxing Gibbous, 66% of the Moon is Illuminated
Jul 27
Waxing Gibbous
Aug 1
Full
Aug 9
Last Quarter
Aug 17
New
Aug 24
First Quarter

Hourly Weather History & Observations

Time (PDT) Temp. Dew Point Humidity Pressure Visibility Wind Dir Wind Speed Gust Speed Precip Events Conditions
12:53 AM 75.9 °F 51.1 °F 42% 29.82 in 10.0 mi SSE 5.8 mph - N/A   Clear
1:53 AM 77.0 °F 46.9 °F 34% 29.82 in 10.0 mi South 10.4 mph - N/A   Clear
2:53 AM 73.0 °F 46.0 °F 38% 29.83 in 10.0 mi South 9.2 mph - N/A   Clear
3:53 AM 72.0 °F 45.0 °F 38% 29.84 in 10.0 mi South 8.1 mph - N/A   Clear
4:53 AM 71.1 °F 45.0 °F 39% 29.85 in 10.0 mi South 8.1 mph - N/A   Clear
5:53 AM 69.1 °F 44.1 °F 40% 29.87 in 10.0 mi South 8.1 mph - N/A   Clear
6:53 AM 70.0 °F 46.0 °F 42% 29.87 in 10.0 mi South 6.9 mph - N/A   Clear
7:53 AM 73.9 °F 46.0 °F 37% 29.88 in 10.0 mi SSW 11.5 mph - N/A   Clear
8:53 AM 77.0 °F 46.0 °F 33% 29.88 in 10.0 mi SW 10.4 mph 21.9 mph N/A   Clear
9:53 AM 80.1 °F 48.9 °F 34% 29.89 in 10.0 mi SSW 10.4 mph - N/A   Clear
10:53 AM 82.0 °F 48.0 °F 30% 29.89 in 10.0 mi SSW 13.8 mph 19.6 mph N/A   Clear
11:53 AM 84.9 °F 48.0 °F 28% 29.88 in 10.0 mi West 9.2 mph - N/A   Clear
12:53 PM 86.0 °F 48.0 °F 27% 29.88 in 10.0 mi WSW 9.2 mph - N/A   Clear
1:53 PM 89.1 °F 46.9 °F 23% 29.86 in 10.0 mi WSW 11.5 mph - N/A   Clear
2:53 PM 90.0 °F 41.0 °F 18% 29.86 in 10.0 mi WSW 11.5 mph - N/A   Clear
3:53 PM 91.0 °F 37.0 °F 15% 29.85 in 9.0 mi WSW 9.2 mph - N/A   Clear
4:53 PM 91.9 °F 34.0 °F 13% 29.84 in 8.0 mi SW 11.5 mph - N/A   Clear
5:53 PM 91.4 °F 28.4 °F 10% 29.86 in 9.0 mi SW 10.4 mph - N/A   Clear
6:53 PM 89.1 °F 30.9 °F 12% 29.84 in 9.0 mi SW 11.5 mph - N/A   Clear
7:53 PM 84.0 °F 30.9 °F 15% 29.86 in 8.0 mi SW 11.5 mph - N/A   Clear
8:53 PM 78.1 °F 34.0 °F 20% 29.89 in 9.0 mi South 12.7 mph - N/A   Clear
9:53 PM 77.0 °F 32.0 °F 19% 29.94 in 9.0 mi SSW 10.4 mph - N/A   Clear
10:53 PM 73.0 °F 39.0 °F 29% 29.95 in 9.0 mi SW 8.1 mph - N/A   Clear
11:53 PM 70.0 °F 42.1 °F 36% 29.98 in 10.0 mi SSW 5.8 mph - N/A   Clear